Regional Weather Roundup
Issued by NWS Sterling, VA

Home | Current Version | Previous Version | Text Only | Print | Product List | Glossary On
Versions: 1 2 3 4 5 6 7 8 9 10 11 12 13 14 15 16 17 18 19 20 21 22 23 24 25 26 27 28 29 30 31 32 33 34 35 36 37 38 39 40 41 42 43 44 45 46 47 48 49 50
000
ASUS41 KLWX 020310
RWRLWX

REGIONAL WEATHER ROUNDUP
NATIONAL WEATHER SERVICE BALTIMORE MD/WASHINGTON DC
1100 PM EDT SAT AUG 01 2015

Note: "FAIR" indicates few or no clouds below 12,000 feet
with no significant weather and/or obstructions to visibility.
 TC=TEMPERATURE CELSIUS

 * =Non NWS site. Station does not report precipitation (e.g. rain,
    snow, etc.), thunder, or fog.

DCZ001-MDZ009-015-VAZ040>042-051-053>054-020400-
WASHINGTON METRO

CITY           SKY/WX    TMP DP  RH WIND       PRES   REMARKS
WASHINGTON NAT PTCLDY    82  59  45 N7        29.89S
DULLES         PTCLDY    74  58  57 NW3       29.91R
ANDREWS AFB    CLEAR     70  66  86 VRB2      29.89R HAZE
FT BELVOIR     CLEAR     70  68  92 CALM      29.89S
COLLEGE PARK*  CLEAR     70  64  83 CALM      29.89S
LEESBURG*      CLEAR     72  61  68 W10       29.92S
MANASSAS*      MOCLDY    70  68  94 CALM      29.91R
GAITHERSBURG*  CLEAR     70  57  64 CALM      29.95S

$$

MDZ006>007-011-014-020400-
BALTIMORE METRO

CITY           SKY/WX    TMP DP  RH WIND       PRES   REMARKS
BWI AIRPORT    PTCLDY    73  62  68 VRB3      29.89R
MD SCIENCE CTR   N/A     82  57  42 MISG      29.89R
MARTIN STATE   CLEAR     73  64  73 CALM      29.89S
ANNAPOLIS      PTCLDY    75  69  81 CALM      29.88R
FORT MEADE*    CLEAR     64  63  94 CALM      29.92S

$$

MDZ012-015-019>023-020400-
MARYLAND EASTERN SHORE

CITY           SKY/WX    TMP DP  RH WIND       PRES   REMARKS
OCEAN CITY     CLEAR     80  70  71 SW9       29.87F
SALISBURY      PTCLDY    75  71  87 S7        29.87F
BAY BRIDGE AP*   N/A     77  68  73 CALM      29.87F
CAMBRIDGE*     CLEAR     73  70  88 CALM      29.87S
EASTON*        CLEAR     76  71  84 CALM      29.91S

$$

MDZ017>025-020400-
SOUTHERN MARYLAND

CITY           SKY/WX    TMP DP  RH WIND       PRES   REMARKS
PATUXENT RIVER PTCLDY    73  68  84 W7        29.87S
ST INIGOES     CLEAR     73  69  87 NE3       29.87R
LEONARDTOWN*   PTCLDY    72  66  83 CALM      29.90S

$$

MDZ003>005-020400-
NORTH CENTRAL MARYLAND

CITY           SKY/WX    TMP DP  RH WIND       PRES   REMARKS
FREDERICK*     CLEAR     68  63  83 CALM      29.93S
HAGERSTOWN APT CLEAR     74  55  51 N3        29.93R
WESTMINSTER*   PTCLDY    73  57  56 CALM      29.92F

$$

MDZ501>502-020400-
WESTERN MARYLAND

CITY           SKY/WX    TMP DP  RH WIND       PRES   REMARKS
OAKLAND*       CLEAR     63  63 100 SW6       30.06S
CUMBERLAND*    CLEAR     72  55  56 CALM      29.99S

$$

VAZ025>031-020400-
SHENANDOAH VALLEY

CITY           SKY/WX    TMP DP  RH WIND       PRES   REMARKS
WINCHESTER*    CLEAR     73  55  53 W5        29.93F
FRONT ROYAL*   FAIR      70  55  60 CALM      29.93S
LURAY*         FAIR      73  57  56 CALM      29.96S
NEW MARKET*    FAIR      63  58  83 CALM      29.95F
STAUNTON*      CLEAR     70  56  62 CALM      29.99S
WAYNESBORO*    FAIR      70  55  60 CALM      29.99S

$$

WVZ021-048>050-054>055-020400-
EASTERN WEST VIRGINIA PANHANDLE

CITY           SKY/WX    TMP DP  RH WIND       PRES   REMARKS
MARTINSBURG    CLEAR     72  55  55 W8        29.93S
PETERSBURG*    CLEAR    N/A N/A N/A CALM      29.98F

$$

VAZ036>039-050-020400-
CENTRAL FOOTHILLS

CITY           SKY/WX    TMP DP  RH WIND       PRES   REMARKS
CHARLOTTESVILL CLEAR     72  58  61 CALM      29.93R
CULPEPER*      CLEAR     66  65  95 CALM      29.93R
ORANGE*        MOCLDY    72  64  78 CALM      29.93S HAZE
GORDONSVILLE*  MOCLDY    68  64  88 CALM      29.92R
WARRENTON*     MOCLDY    67  67  99 CALM      29.91R

$$

VAZ055>057-020400-
NORTH AND CENTRAL PIEDMONT

CITY           SKY/WX    TMP DP  RH WIND       PRES   REMARKS
FREDERICKSBRG* CLOUDY    74  70  86 CALM      29.89R
STAFFORD*      PTCLDY    69  66  90 NW6       29.94R

$$

NCZ024-NYZ072-PAZ021-071-VAZ022-071-020400-
OTHER REGIONAL OBSERVATIONS

CITY           SKY/WX    TMP DP  RH WIND       PRES   REMARKS
NEW YORK CITY  CLEAR     79  55  43 VRB5      29.88R
PHILADELPHIA   PTCLDY    83  57  41 W7        29.87S
PITTSBURGH     CLEAR     69  56  62 CALM      29.96R
ROANOKE        PTCLDY    73  55  53 NW7       30.00R
RICHMOND       PTCLDY    78  67  68 CALM      29.89R
RALEIGH        PTCLDY    73  64  73 CALM      29.92S

$$

ANZ530>537-020400-
MARINE OBSERVATIONS

STATION/POSITION TIME  TEMP    WIND        PRES
                       AIR SEA DIR/SP/G
                 (UTC) (F)     (DEG/KT/KT) (MB)
THOMAS PT LIGHT  NOT AVBL
BALT KEY BRIDGE  0200   82     260/  7/  7 1011.4R
COVE POINT       0200   81     340/  1/  2 1012.2R
LEWISETTA        0200   82 85  210/  6/  7 1011.2R
SOLOMONS ISLAND  0200      83                N/A
PINEY POINT      0200          150/  3/  3   N/A

$$




USA.gov is the U.S. government's official web portal to all federal, state and local government web resources and services.